Live-Position
3D-Globus wird geladen...
Über Starlink 4166
Group: 3 satellites
Beschreibung wird geladen...
Nächste Überflüge
Passes for default location (London). Set your location on the main map for personalized predictions.
Höhenverlauf
Loading altitude history...
No altitude history available
Zweizeiliger Elementsatz
1 53291U 22086BB 26104.89461968 -.00002718 00000-0 -15278-3 0 9998
2 53291 53.2183 16.3814 0001415 92.4599 267.6555 15.08828674206728
Epoch: 14. Apr. 2026 •
Age: 6 hours
Aktueller Status
Höhe 559.2 km
Geschwindigkeit 7.58 km/s
Subsatellitenpunkt -52.93°S,
20.65°E
Startdatum 24. Juli 2022
Alter 3.7 years
Typ internet
Startgruppe
Falcon 9 •
Group 4-25 •
45 satellites
Starlink 4056
53242
Starlink 4047 53243
Starlink 4125 53244
Starlink 4131 53246
Starlink 4061 53247
Starlink 4135 53248
Starlink 4128 53249
Starlink 4059 53250
Starlink 4129 53251
Starlink 4132 53252
Starlink 4133 53253
Starlink 4134 53254
Starlink 4142 53255
Starlink 4147 53256
Starlink 4144 53257
Starlink 4127 53258
Starlink 4140 53259
Starlink 4062 53261
Starlink 4085 53262
Starlink 4130 53263
...and 24 more
Technische Details
Klassifizierung Payload
Masse 297.00 kg
Trockenmasse 275.00 kg
Gesamtmasse 297.00 kg
Länge 0.20 m
Durchmesser 2.80 m
Spannweite 9.00 m
Form Box + pan
Hersteller SPXS
Bus-Typ Starlink
Phasenstatus In Orbit
Besitzer/Staat SPXS/US
Most Searched
Loading...